OBJECT AL, 57200

Orbit data source: Space-Track

You're viewing an Uncataloged Satellite

Recently launched and/or uncataloged satellites may have evolving metadata. Metadata may include but not limited to: Owner, Maufacturer, Bus, Motor, and Mission.

OBJECT AL, 57200 is a satellite in SSO that was launched on Tue, 27 Jun 2023 UTC via a SOYUZ-2-1B launch vehicle from the Vostochny Cosmodrome (VOSTO). Unknown objects in Earth's orbit typically refer to objects detected orbiting the Earth but have not yet been identified or cataloged. These objects could be anything from previously untracked satellites, spent rocket stages, debris from satellite collisions, or even natural meteoroids temporarily captured by Earth's gravity.

Loading next visibility...
Identifier
57200, 2023-091AL
Orbit
SSO
Country
Flag of TBDTBD
Related business
None
Manufacturer
Unknown
Mission
Operational Civil Technology
Bus & Motor
Unknown
Mass
Unknown
Launch date (UTC)
2023-06-27 (3 years ago)
Launch vehicle
SOYUZ-2-1B
Launch site
Vostochny Cosmodrome (VOSTO)
Object type
Unknown
Shape & HBR
Box, 0.2 m
Radar Cross Section
0.080 m², Medium (>0.1 m² and < 1m²)

Expand to show TLE details & history
Last TLE update: 19 hours ago

TLE from 19 hours ago
0 OBJECT AL
1 57200U 23091AL  26207.63483029  .00033708  00000-0  65042-3 0  9992
2 57200  97.5035 283.4009 0004331 255.1385 104.9385 15.47747591171101
Epoch: 2026-07-26T15:14Z
TLE epoch observation values (Epoch: 2026-07-26T15:14:09.337Z)
Latitude
-0.00003°
Longitude
110.53206°
Altitude
427.202 km
Speed
7.655 km/s
True Right ascension
18h 53m 36s
True Declination
0° 00' 00"
Sunlit
Object was in full shadow at epoch
Visualization orbit readout
Latitude
Unknown
Longitude
Unknown
Altitude
Unknown
Speed
Unknown
Apparent Right ascension
Unknown
Apparent Declination
Unknown
Sunlit
N/A
Visualization observer readout
Local Sidereal Time
00:03:01
Azimuth
Unknown
Elevation
Unknown
Doppler factor
Unknown
Orbital elements
Apogee altitude
423.194 km
Perigee altitude
417.306 km
Semi-major axis
6,798.387 km
Eccentricity
0.00043
Inclination
97.5035°
RAAN
283.4009°
Arg. of periapsis
255.1385°
True anomaly
104.98645°
Mean anomaly
104.9385°
Eccentric anomaly
104.96247°
Mean motion
3.87199 °/min
Orbital period
92.98 mins
BSTAR
0.00065042
Loading maneuver chart data...
Computing Atmospheric mass density...
Loading historical data...
Loading historical data...
Loading historical data...
Loading historical data...
Loading historical data...
Loading historical data...
Loading historical data...

Documentation

Showing up to 5 results
|